Home   Weather   Shymkent   Past weeks

Flag for Kazakhstan Past Weather in Shymkent, Kazakhstan — Yesterday and Last 2 Weeks

54 °F


Feels Like: 54 °F
Forecast: 46 / 63 °F
Wind: 1 mph from East

Location: Shymkent Airport

Current Time: Oct 28, 2016 at 8:25:26 PM

Latest Report: Oct 28, 2016 at 8:00 PM

Visibility: 3 mi

Pressure: 30.27 "Hg (28.49 "Hg at 506m altitude)

Humidity: 38%

Dew Point: 28 °F

Location of ShymkentLocation

Past Weather in Shymkent — Graph


Shymkent Temperature Yesterday

Maximum temperature yesterday: 63 °F (at 3:00 PM)
Minimum temperature yesterday: 28 °F (at 5:30 AM)
Average temperature yesterday: 44 °F

High & Low Weather Summary for the Past Weeks

High73 °F (Oct 15, 2:00 PM)100% (Oct 13, 7:00 PM)30.63 "Hg (Oct 13, 7:00 PM)
Low27 °F (Oct 26, 2:30 AM)15% (Oct 28, 1:30 PM)29.89 "Hg (Oct 16, 3:30 AM)
Average42 °F70%30.32 "Hg
* Reported Oct 13 7:00 PM — Oct 28 7:00 PM, Shymkent, Weather by CustomWeather, © 2016

Note: Actual official high and low records may vary slightly from our data, if they occured in-between our weather recording intervals... More about our weather records


Shymkent Weather History for the Previous 24 Hours

Scroll right to see more
Time TempWeatherWind HumidityBarometerVisibility
7:00 PM
Fri, Oct 28
55 °FClear.No wind31%30.27 "Hg4 mi
6:30 PM59 °FClear.1 mph27%30.27 "Hg10 mi
6:00 PM61 °FSunny.1 mph25%30.27 "Hg10 mi
5:30 PM63 °FSunny.1 mph22%30.30 "Hg10 mi
5:00 PM64 °FSunny.1 mph21%30.30 "Hg10 mi
4:30 PM66 °FSunny.1 mph18%30.30 "Hg10 mi
4:00 PM66 °FPassing clouds.3 mph18%30.30 "HgN/A
3:30 PM66 °FPassing clouds.3 mph18%30.30 "HgN/A
3:00 PM66 °FPassing clouds.3 mph18%30.33 "HgN/A
2:30 PM66 °FPassing clouds.3 mph17%30.33 "HgN/A
2:00 PM66 °FPassing clouds.3 mph17%30.33 "HgN/A
1:30 PM66 °FSunny.1 mph15%30.33 "Hg10 mi
1:00 PM66 °FSunny.1 mph17%30.33 "Hg10 mi
12:30 PM66 °FSunny.1 mph17%30.36 "Hg10 mi
12:00 PM64 °FClear.1 mph19%30.36 "Hg5 mi
11:30 AM63 °FClear.1 mph22%30.36 "Hg5 mi
11:00 AM63 °FClear.1 mph24%30.36 "Hg5 mi
10:30 AM59 °FClear.3 mph27%30.36 "Hg5 mi
10:00 AM54 °FOvercast.6 mph33%30.36 "HgN/A
9:30 AM50 °FOvercast.6 mph37%30.36 "HgN/A
9:00 AM46 °FOvercast.6 mph43%30.36 "HgN/A
8:30 AM45 °FOvercast.6 mph49%30.36 "HgN/A
8:00 AM45 °FSunny.No wind49%30.36 "Hg10 mi
7:30 AM43 °FClear.No wind53%30.36 "Hg10 mi
7:00 AM43 °FClear.8 mph53%30.36 "Hg10 mi
6:30 AM43 °FClear.3 mph53%30.36 "Hg10 mi
6:00 AM41 °FClear.6 mph57%30.36 "Hg10 mi
5:30 AM41 °FClear.6 mph61%30.36 "Hg10 mi
5:00 AM41 °FClear.6 mph57%30.36 "Hg10 mi
4:30 AM39 °FClear.8 mph65%30.36 "Hg10 mi
4:00 AM39 °FClear.6 mph65%30.36 "Hg10 mi
3:30 AM39 °FClear.6 mph65%30.36 "Hg5 mi
3:00 AM39 °FClear.3 mph65%30.36 "Hg5 mi
2:30 AM37 °FClear.6 mph70%30.36 "Hg5 mi
2:00 AM37 °FFog.6 mph70%30.36 "Hg3 mi
1:30 AM37 °FFog.6 mph65%30.36 "Hg3 mi
1:00 AM39 °FFog.6 mph65%30.36 "Hg3 mi
12:30 AM39 °FFog.8 mph65%30.36 "Hg3 mi
12:00 AM37 °FFog.3 mph70%30.36 "Hg3 mi
11:30 PM
Thu, Oct 27
37 °FFog.1 mph70%30.36 "Hg3 mi
11:00 PM37 °FClear.1 mph65%30.36 "Hg3 mi
10:30 PM41 °FClear.3 mph57%30.36 "Hg3 mi
10:00 PM41 °FClear.3 mph57%30.36 "Hg3 mi
9:30 PM43 °FClear.3 mph49%30.36 "Hg3 mi
9:00 PM43 °FClear.3 mph49%30.36 "Hg5 mi
8:30 PM45 °FClear.1 mph42%30.39 "Hg5 mi
8:00 PM46 °FPassing clouds.3 mph40%30.39 "Hg5 mi
Weather by CustomWeather, © 2016

See weather overviewHow to use our weather pages